Home   Weather   San Antonio   Past weeks

Flag for USA Past Weather in San Antonio, Texas, USA — Yesterday and Last 2 Weeks

Now
82 °F

Passing clouds.


Feels Like: 82 °F
Forecast: 65 / 85 °F
Wind: 3 mph from North

Location: San Antonio International Airport

Current Time: Sep 28, 2016 at 2:02:42 PM

Latest Report: Sep 28, 2016 at 12:51 PM


Visibility: 10 mi

Pressure: 30.06 "Hg

Humidity: 48%

Dew Point: 60 °F

Location of San AntonioLocation

Past Weather in San Antonio — Graph

°F

San Antonio Temperature Yesterday

Maximum temperature yesterday: 76 °F (at 3:51 PM)
Minimum temperature yesterday: 66 °F (at 3:51 AM)
Average temperature yesterday: 71 °F

High & Low Weather Summary for the Past Weeks

 TemperatureHumidityPressure
High96 °F (Sep 18, 2:51 PM)94% (Sep 16, 5:51 AM)30.11 "Hg (Sep 16, 5:51 AM)
Low64 °F (Sep 28, 4:51 AM)34% (Sep 20, 3:51 PM)29.83 "Hg (Sep 24, 5:51 PM)
Average81 °F71%29.95 "Hg
* Reported Sep 13 12:51 PM — Sep 28 12:51 PM, San Antonio, Weather by CustomWeather, © 2016

Note: Actual official high and low records may vary slightly from our data, if they occured in-between our weather recording intervals... More about our weather records

Advertising

San Antonio Weather History for the Previous 24 Hours

Scroll right to see more
 ConditionsComfort  
Time TempWeatherWind HumidityBarometerVisibility
12:51 PM
Wed, Sep 28
82 °FPassing clouds.3 mph48%30.06 "Hg10 mi
11:51 AM81 °FPassing clouds.No wind51%30.07 "Hg10 mi
10:51 AM78 °FPassing clouds.3 mph58%30.08 "Hg10 mi
9:51 AM74 °FPassing clouds.No wind69%30.06 "Hg10 mi
8:51 AM69 °FSunny.3 mph81%30.05 "Hg10 mi
7:51 AM65 °FSunny.No wind87%30.02 "Hg10 mi
6:51 AM64 °FClear.3 mph90%30.01 "Hg10 mi
5:51 AM64 °FClear.5 mph90%30.00 "Hg10 mi
4:51 AM64 °FClear.3 mph90%29.99 "Hg10 mi
3:51 AM65 °FClear.6 mph91%29.99 "Hg10 mi
2:51 AM66 °FClear.5 mph87%30.00 "Hg10 mi
1:51 AM66 °FPassing clouds.3 mph90%30.00 "Hg10 mi
12:51 AM68 °FPassing clouds.6 mph87%30.01 "Hg10 mi
11:51 PM
Tue, Sep 27
69 °FPassing clouds.5 mph84%30.02 "Hg10 mi
10:51 PM72 °FPassing clouds.3 mph73%30.02 "Hg10 mi
9:51 PM73 °FPassing clouds.3 mph69%30.02 "Hg10 mi
8:51 PM73 °FPassing clouds.5 mph69%30.01 "Hg10 mi
7:51 PM74 °FPassing clouds.3 mph69%29.99 "Hg10 mi
6:51 PM75 °FPartly sunny.5 mph66%29.99 "Hg10 mi
5:51 PM76 °FMore clouds than sun.7 mph67%29.99 "Hg10 mi
4:51 PM76 °FMore clouds than sun.6 mph64%29.99 "Hg10 mi
3:51 PM76 °FOvercast.7 mph67%30.00 "Hg10 mi
2:51 PM75 °FOvercast.7 mph66%30.01 "Hg10 mi
Weather by CustomWeather, © 2016

See weather overviewHow to use our weather pages